Chevak, AK (99563)

8:51 PM AKST on February 22, 2017 (GMT -0900)
Chevak | | Change Station

Elev 75 ft 61.54 °N, 165.60 °W | Updated 55 minutes ago

Ice Pellets
Ice Pellets
26 °F
Feels Like 12 °F
N
22
Wind Variable Wind from SE

Today
High -- | Low -- °F
--% Chance of Precip.
Yesterday
High -- | Low -- °F
Precip. -- in
Pressure 29.85 in
Visibility 3.0 miles
Clouds
Windchill 12 °F
Dew Point 25 °F
Humidity 96%
Rainfall 0.00 in
Snow Depth Not available.
9:23 AM 7:09 PM
Waning Crescent, 12% visible
METAR PAVA 230456Z AUTO 14019KT 3SM BR M03/M04 A2981 RMK AO2 PK WND 12027/0407 UPB05E45SNE05 SLP107 P0000 T10331039 FZRANO
Pressure 29.85 in
Visibility 3.0 miles
Clouds
Windchill 12 °F
Dew Point 25 °F
Humidity 96%
Rainfall 0.00 in
Snow Depth Not available.
9:23 AM 7:09 PM
Waning Crescent, 12% visible
METAR PAVA 230456Z AUTO 14019KT 3SM BR M03/M04 A2981 RMK AO2 PK WND 12027/0407 UPB05E45SNE05 SLP107 P0000 T10331039 FZRANO

Get Your Daily Forecast Email!

Thanks for signing up!

Be on the lookout for a verification email in your inbox.

You'll start receiving the daily forecast at 8 AM.

×

10-Day Weather Forecast

Almanac

Astronomy

Feb. 22, 2017 Rise Set
Actual Time
Civil Twilight
Nautical Twilight
Astronomical Twilight
Moon
Length of Visible Light
Length of Day
Tomorrow will be .
, % of the Moon is Illuminated

Today's Extremes

State Highs State Lows

Community

WunderPhotos

Upload Photos

1,962,540 photos uploaded!

WunderBlog® & News

Nearby

Air Quality

  Air Quality AQ Index Pollutant
Not available.

Snow Depth

Station Depth Elevation

Earthquake Activity

City Distance Mag. Time & Date
Minimum magnitude displayed is 2.5.

Coastal Water Temperatures

Place Temperature

Stations

Nearby Weather Stations

Station Location Temp. Windchill Dew Point Humidity Wind Precip. Elev Updated Type
                   

Watches & Warnings

There are currently no watches in effect.